Wind_Gust
10 12 9 12 14 16 18 17 17 20 21 23 20 17 15 11 11 11 12 15 11 14 17 16 12 12 20 11 18 15 16 17 17 21 14 16 12 21 14 22 27 27 27 26 27 26 25 23 26 28 29 28 28 27 26 26 25 24 23 23 23 23 22 23 23 23 22 22 22 21 20 21 21 21 20 20 19 20 20 20 21 21 21 22 22 22 22 22 22 21 21 21 20 21 20 20 20
11 9 11 12 15 17 15 12 23 20 21 23 21 16 14 13 12 12 17 16 16 21 22 20 17 18 21 16 14 15 17 18 17 15 17 15 22 18 18 25 28 28 27 27 27 26 25 25 24 26 28 29 28 27 27 26 25 24 23 23 23 23 22 23 23 23 22 21 21 20 20 20 20 20 20 19 19 20 20 21 22 21 21 22 22 22 22 21 21 21 20 18 19 19 19 19 18
10 13 14 15 17 20 14 19 27 23 22 26 20 17 14 16 14 13 14 18 16 16 20 18 17 13 17 17 17 13 19 15 17 18 19 20 21 19 21 26 24 25 26 26 27 25 24 24 24 27 27 29 29 27 26 25 24 25 24 23 23 23 22 22 22 22 21 21 20 20 20 20 21 21 19 19 19 20 20 21 22 22 21 22 22 22 22 21 20 19 18 17 16 17 17 17 18
10 10 15 14 18 15 20 20 23 23 24 21 21 14 12 15 18 18 13 14 16 15 16 12 15 13 15 20 16 14 14 14 15 14 23 24 17 22 26 25 24 25 25 26 25 25 23 24 24 25 27 28 28 27 26 25 26 25 24 23 23 23 22 22 21 20 20 20 19 19 19 20 20 20 20 20 19 19 19 19 21 22 22 22 22 22 21 20 20 18 18 17 17 18 18 19 19
14 12 14 16 20 19 18 18 20 20 25 23 21 16 13 16 19 21 22 14 15 15 15 11 17 12 12 14 14 16 17 12 16 12 23 18 21 24 28 27 25 25 26 25 25 25 25 23 23 24 25 27 28 28 26 26 25 25 24 23 23 22 22 22 21 20 20 20 19 18 18 18 19 20 20 20 20 19 19 19 18 20 21 21 21 21 19 19 18 18 19 20 21 21 22 21 20
13 13 13 18 18 21 22 20 24 24 22 14 18 15 17 17 19 20 24 20 18 13 15 13 16 10 16 15 17 17 17 11 14 12 17 22 24 25 27 26 26 24 24 24 24 23 27 24 22 23 24 25 26 27 25 25 25 25 24 23 23 22 21 21 21 20 20 19 19 17 18 17 18 19 19 19 20 20 20 19 18 18 20 20 20 20 19 18 18 20 21 22 22 21 21 20 19
15 17 16 16 15 18 22 21 22 19 15 13 19 17 17 19 19 19 23 23 12 10 8 12 11 12 16 20 21 21 16 13 11 15 13 25 24 27 26 26 26 25 24 24 23 25 29 23 21 21 23 24 25 25 25 25 25 24 24 22 22 22 21 20 20 20 20 20 18 17 17 17 17 18 18 19 19 19 20 19 18 17 18 18 19 18 18 19 19 20 21 21 21 20 20 19 19
10 19 12 21 17 17 23 24 22 17 17 12 13 18 17 18 18 17 18 16 19 14 12 11 11 17 14 15 15 16 17 18 14 16 22 25 23 24 25 26 27 26 25 23 22 24 25 21 20 20 22 23 24 24 24 24 23 24 23 22 21 20 20 20 20 20 19 20 18 17 17 16 16 17 17 18 18 19 19 19 19 18 17 17 17 18 18 19 19 20 21 21 20 20 19 19 18
15 18 11 19 21 17 20 21 22 11 19 14 16 15 15 17 15 17 18 15 16 15 15 14 13 18 18 16 20 16 22 18 18 18 19 21 25 25 28 25 27 27 24 24 24 26 26 20 19 20 21 22 23 23 23 23 23 22 21 20 20 19 19 19 19 19 18 18 17 17 16 16 17 18 18 17 17 18 18 19 18 18 18 19 19 19 19 19 19 20 21 20 20 20 19 18 18
16 18 18 25 19 20 21 21 20 20 15 12 16 17 16 13 15 16 18 18 14 14 16 12 12 15 19 17 21 15 18 17 17 19 20 21 21 22 24 23 22 25 24 24 25 26 24 22 19 18 19 20 21 21 21 21 22 21 20 19 18 18 17 17 17 17 17 16 16 17 16 16 17 18 19 18 17 17 17 17 18 18 19 19 19 19 19 20 20 19 19 19 19 19 18 18 18
23 21 16 20 22 25 24 21 20 14 16 15 16 15 14 12 14 18 16 17 13 14 13 11 17 17 18 18 19 14 12 14 17 21 22 22 21 21 23 22 23 22 26 23 22 24 27 26 22 19 18 18 18 19 19 19 20 19 19 18 17 17 17 16 16 17 16 16 16 16 15 15 16 17 18 18 17 17 17 17 18 18 19 19 19 19 19 19 20 20 18 18 18 18 18 18 18
25 19 20 26 27 23 21 23 15 14 14 12 17 10 10 13 13 16 13 13 12 10 11 11 21 19 19 20 15 14 15 14 16 19 21 21 22 22 22 22 25 24 23 22 23 24 26 26 26 22 20 19 18 17 17 17 18 18 17 17 17 17 16 15 16 15 15 15 16 16 15 15 16 17 18 18 18 17 17 17 17 18 18 19 19 19 19 19 19 19 18 17 18 18 17 17 17
27 20 22 26 26 23 19 16 16 12 14 15 12 15 12 12 12 11 12 11 9 13 13 15 11 16 18 16 15 14 16 14 17 19 20 20 22 22 20 22 24 25 22 20 24 26 26 26 28 28 23 21 20 20 18 18 18 19 18 17 17 16 15 15 16 15 14 15 15 15 15 15 15 17 17 18 18 18 17 16 16 17 18 18 18 18 18 18 18 18 18 16 16 17 18 18 17
27 21 22 26 16 18 18 19 14 15 19 13 12 11 10 11 9 12 12 13 16 14 15 14 11 12 20 23 19 19 19 17 18 20 21 20 20 20 21 21 22 24 24 23 23 25 25 25 26 26 28 26 26 23 20 21 20 19 19 18 18 17 17 17 17 16 16 15 15 15 15 15 15 15 16 17 18 18 17 17 16 17 17 17 18 18 18 18 17 16 16 15 15 16 18 18 17
25 17 24 25 20 20 20 22 17 18 16 16 16 10 12 9 11 10 13 12 17 14 16 11 16 17 21 21 24 22 23 21 21 21 21 22 24 21 21 21 22 22 24 23 23 24 24 24 26 26 24 25 26 23 24 25 22 22 21 19 19 20 19 17 18 18 17 16 16 16 16 15 14 15 15 16 17 18 18 17 16 16 16 17 17 17 18 18 17 16 15 15 15 17 19 19 18
23 20 24 26 23 19 18 21 13 15 19 15 16 8 10 12 11 10 15 13 16 16 14 15 17 14 15 18 26 25 23 24 23 24 24 23 20 20 22 20 22 21 20 22 21 23 24 24 24 24 24 23 22 21 22 23 21 21 21 22 21 21 21 20 20 19 18 17 16 17 16 17 15 18 15 18 15 16 17 16 16 16 16 17 16 17 17 17 17 16 15 15 16 18 20 19 18
16 20 24 24 25 21 18 20 17 25 19 15 13 11 11 14 12 14 9 11 16 19 21 22 17 12 22 29 26 27 26 25 24 24 25 24 22 19 23 24 19 18 19 19 19 19 20 22 21 20 21 22 21 22 21 23 24 21 20 20 21 21 20 21 20 19 18 17 17 15 16 18 17 18 20 19 17 19 14 16 16 16 16 17 17 17 17 16 16 15 14 15 16 18 19 19 18
20 27 24 24 21 21 18 18 19 14 20 17 14 11 11 14 13 13 16 21 21 20 24 22 25 27 26 28 26 25 24 25 25 22 23 25 20 19 18 24 20 20 19 19 21 20 20 19 20 19 20 21 21 22 20 22 24 21 22 23 23 23 20 19 23 23 18 22 16 21 19 18 17 17 16 14 17 18 18 15 16 16 16 16 17 17 17 16 16 15 15 16 17 17 19 20 17
24 22 26 22 20 14 17 16 15 17 17 16 15 9 10 17 14 13 13 16 17 24 25 21 25 23 22 23 23 23 21 20 19 19 22 22 21 19 18 20 23 21 18 18 17 15 18 17 20 26 25 20 20 19 20 19 22 21 21 22 22 18 21 23 23 23 22 22 23 21 17 16 16 16 17 15 14 10 16 14 15 16 16 17 17 17 17 17 16 16 17 17 17 19 23 15 15
21 19 22 21 16 13 14 14 17 15 14 15 14 12 12 17 16 16 15 23 22 24 20 19 20 20 20 20 19 20 19 19 19 20 21 20 20 19 18 18 21 23 21 18 19 15 15 17 19 21 19 21 23 19 18 19 19 18 19 21 21 21 22 22 21 21 20 20 21 18 17 15 15 14 12 13 13 18 19 12 13 15 16 16 19 16 17 17 18 17 16 18 15 14 13 13 14
18 20 20 18 18 16 18 16 15 12 10 10 9 12 13 20 20 22 16 22 26 23 20 16 20 23 22 20 18 17 18 19 23 28 25 21 18 17 16 17 17 19 20 18 17 18 17 18 20 17 21 23 19 20 22 17 16 18 18 18 19 20 21 20 19 19 18 18 19 17 18 16 16 16 16 17 17 17 18 18 20 20 20 20 18 18 19 22 18 21 22 20 16 14 14 12 11
19 20 13 14 17 17 20 17 12 10 10 8 9 10 15 13 26 26 28 26 22 20 18 19 19 22 21 20 19 18 20 24 27 28 28 27 28 24 23 20 15 15 18 17 20 21 19 17 11 13 15 11 12 16 20 20 24 20 20 17 18 19 18 18 17 18 18 18 18 18 16 16 16 16 16 16 16 17 16 19 18 17 17 19 21 18 18 19 18 18 18 17 15 14 13 13 12
21 12 11 12 19 17 19 15 13 10 11 11 11 13 14 19 20 24 26 25 17 14 14 17 19 19 19 19 20 20 22 20 20 22 26 24 23 18 15 14 18 15 15 18 19 20 20 18 14 16 10 14 13 13 11 14 18 20 17 23 20 19 18 18 18 17 17 17 18 17 18 18 17 16 16 16 15 15 16 15 16 16 16 17 17 17 17 17 18 18 17 16 15 15 15 14 13
19 21 14 14 15 14 12 13 13 13 16 17 15 15 22 15 23 22 27 19 16 14 16 19 20 22 20 23 21 21 21 21 19 19 18 16 15 15 14 14 14 12 16 15 21 20 16 16 12 17 12 8 9 9 12 13 12 16 18 20 20 23 26 23 19 18 17 18 18 18 17 18 18 18 17 17 16 15 15 15 14 15 15 16 16 15 18 17 18 17 17 17 17 16 17 14 13
14 18 15 14 14 11 12 12 16 21 20 18 21 25 22 24 23 23 25 20 17 15 17 20 21 21 21 21 21 20 20 20 19 18 16 15 13 13 13 15 14 15 18 17 18 16 15 15 10 10 12 13 9 11 12 11 10 12 14 14 16 13 20 19 18 17 18 18 19 18 17 18 18 18 18 18 16 15 15 15 15 15 15 16 16 16 17 17 17 18 18 18 17 16 16 15 13
17 14 15 12 11 11 12 14 16 19 16 17 28 22 20 17 19 30 22 21 16 15 20 22 23 24 23 23 22 22 20 19 20 20 18 17 16 17 17 17 17 18 19 18 17 17 16 13 12 13 12 11 9 10 11 11 12 12 13 15 15 15 17 19 16 17 17 20 20 19 19 18 18 19 19 19 18 16 15 15 16 15 16 15 17 16 16 16 17 17 18 18 18 17 17 16 14
19 11 9 13 12 12 13 14 17 15 15 15 28 23 22 23 13 21 21 21 18 23 24 24 27 27 25 23 24 22 23 22 21 21 21 18 20 20 19 19 19 19 19 20 19 20 20 18 16 13 11 11 12 10 11 9 12 14 11 12 15 16 15 16 17 18 19 19 20 20 19 19 18 18 18 18 18 17 16 16 16 15 15 15 15 15 14 15 15 16 18 18 19 18 16 17 15
13 17 18 18 18 23 14 15 17 19 20 18 27 25 25 25 26 22 19 19 17 24 26 26 26 26 26 23 23 21 22 22 23 23 24 22 23 22 23 23 21 21 22 22 21 20 21 19 18 16 15 13 11 11 10 11 12 12 11 12 15 16 15 15 17 18 18 20 20 19 19 21 20 18 19 19 18 18 18 18 16 16 16 15 15 14 15 14 14 15 16 16 16 16 16 16 14
14 18 19 17 18 21 19 13 12 9 19 8 16 26 26 27 18 17 17 15 16 24 26 25 25 25 24 24 24 24 24 23 23 24 22 22 22 23 24 22 21 20 21 22 23 23 22 20 20 19 18 16 15 16 14 12 12 11 11 12 15 15 15 17 18 18 19 19 19 19 20 21 20 20 20 20 19 19 18 18 17 17 16 16 15 14 14 14 14 14 15 15 17 17 15 16 16
14 12 16 20 20 17 20 11 12 13 13 12 13 18 18 19 17 17 18 15 16 25 25 23 24 25 25 24 25 25 24 25 26 24 22 22 22 23 24 23 22 21 22 21 20 22 19 17 17 17 19 19 17 17 16 14 12 12 11 11 12 13 17 17 16 17 19 20 19 19 21 23 21 21 20 18 19 18 18 19 19 19 16 15 15 15 15 14 15 15 17 18 16 18 18 16 17
16 10 13 20 21 17 13 13 14 21 13 10 14 23 16 16 16 18 17 14 16 25 22 22 23 24 24 24 26 27 25 25 25 23 22 22 22 23 23 22 22 21 21 20 20 18 18 18 17 16 17 16 16 15 15 15 12 13 13 12 12 15 16 17 17 16 17 19 21 21 22 22 23 21 21 18 19 18 19 20 19 20 18 16 17 17 15 15 15 16 17 19 19 19 18 18 18
15 25 21 18 20 19 12 16 15 21 14 12 32 21 18 16 16 17 16 14 17 26 23 23 23 23 23 24 25 26 26 24 24 22 22 21 20 23 24 23 22 22 21 20 19 19 19 18 17 17 17 17 16 15 14 14 14 12 12 10 12 13 16 15 16 16 17 17 18 20 23 22 21 21 19 18 17 18 20 20 19 18 18 18 18 17 17 17 17 16 17 17 18 20 19 19 18
11 15 14 17 10 16 14 19 13 13 18 20 20 23 21 18 16 16 16 13 17 24 23 23 23 23 23 23 22 23 24 25 26 25 23 21 22 21 21 22 23 21 21 21 21 19 19 18 18 18 18 17 15 15 13 12 13 13 12 13 13 13 16 16 15 15 15 17 16 23 22 23 23 20 20 20 18 18 21 21 19 17 17 18 18 18 19 19 17 17 16 18 17 20 21 20 20
12 10 14 10 19 19 20 14 21 13 24 18 19 29 20 20 18 17 16 15 19 24 23 21 22 22 22 23 24 23 23 23 25 23 22 20 21 20 20 20 21 21 20 21 20 20 19 18 17 18 18 18 17 19 16 14 13 13 13 13 12 14 14 13 14 14 15 15 15 18 20 21 18 20 23 21 22 22 23 21 20 19 18 18 19 19 19 17 17 16 17 17 19 20 20 19 20
21 21 18 21 17 19 16 22 14 26 21 28 22 27 23 20 19 17 16 15 19 21 21 21 21 21 21 21 23 22 23 23 22 20 19 19 19 19 20 19 20 20 20 20 20 20 20 19 18 17 18 18 18 17 17 14 13 13 13 14 11 12 12 14 14 15 17 16 19 20 19 19 20 21 23 22 23 22 22 21 21 19 20 20 19 20 20 19 18 18 18 18 17 20 19 18 18
25 26 25 22 22 17 16 16 12 27 22 22 20 26 25 22 20 19 17 16 19 20 19 20 20 19 19 20 20 20 21 22 20 18 17 19 19 20 20 20 19 19 19 19 19 19 20 19 18 18 18 18 16 16 16 17 16 15 14 14 12 12 12 14 14 17 18 18 19 20 21 21 21 22 21 23 22 21 22 22 21 22 23 21 20 20 20 20 19 18 18 20 19 21 21 19 16
21 21 21 23 26 18 17 16 15 20 31 21 22 24 23 22 20 19 18 18 18 18 18 18 17 18 18 18 19 20 19 19 17 17 17 17 19 19 19 20 20 18 19 20 19 19 19 20 19 19 18 18 18 19 18 18 17 17 15 15 15 15 15 14 16 19 19 19 20 19 19 18 21 23 22 22 22 22 23 21 20 22 22 21 20 21 20 20 19 18 19 18 20 21 21 20 15
25 22 23 23 21 25 14 14 12 13 24 20 19 23 22 22 20 19 18 17 18 17 17 17 17 16 16 16 17 18 17 16 16 18 17 17 20 18 18 19 19 23 21 19 19 18 17 17 18 19 18 18 17 17 18 17 16 17 18 18 18 18 17 16 16 15 19 17 18 19 18 20 20 21 22 21 22 23 24 24 21 21 21 21 20 19 20 21 20 20 19 20 20 22 22 20 18
20 25 22 25 21 21 15 14 14 14 30 22 21 22 22 19 18 16 16 15 15 13 14 14 14 15 15 16 17 16 16 16 17 18 18 19 18 19 19 18 19 18 18 19 17 18 17 18 18 18 17 18 17 17 18 19 17 17 18 19 20 20 16 15 16 17 17 18 18 20 22 20 20 20 22 23 24 23 23 22 23 22 22 22 21 22 22 22 21 22 21 21 20 21 21 19 18
23 24 23 22 24 23 21 13 12 13 19 24 21 20 22 18 16 15 12 14 14 13 12 12 12 13 14 15 14 15 16 17 18 18 18 19 19 19 20 21 19 18 20 20 20 19 17 19 18 19 18 17 17 16 18 18 18 18 17 17 17 18 19 16 17 18 19 19 19 18 19 19 20 22 21 23 22 24 24 23 22 22 24 23 23 23 24 24 23 22 22 23 22 21 24 23 22
12 11 20 24 22 12 17 20 19 21 22 19 22 19 20 20 21 19 16 13 14 13 13 12 12 13 13 13 14 15 15 14 15 16 16 17 19 20 20 20 20 20 20 21 20 21 20 19 20 20 18 17 17 17 18 18 19 17 17 16 16 17 17 17 17 18 17 17 18 17 18 20 22 23 23 23 22 22 22 22 22 22 23 23 26 26 24 25 24 23 23 23 23 24 24 23 21
15 11 12 19 17 23 23 24 22 20 19 19 21 20 21 20 19 21 20 19 16 14 13 14 13 13 13 14 14 14 14 14 14 14 15 16 17 17 18 19 19 19 18 17 16 17 17 18 19 19 18 17 18 17 18 19 18 19 19 18 18 17 18 16 17 16 15 16 19 16 16 17 19 20 21 23 24 22 21 23 23 23 23 24 25 26 26 23 24 25 25 24 24 24 24 22 24
14 15 10 18 21 25 25 23 19 19 21 23 15 19 13 22 23 21 19 20 19 17 15 16 16 15 14 14 15 14 13 13 13 13 14 15 15 17 18 19 19 18 17 16 16 16 17 17 17 18 18 18 17 17 18 19 18 18 17 18 18 19 20 20 17 15 16 16 17 17 17 16 18 19 19 20 20 21 22 22 22 23 24 23 24 25 26 26 27 27 26 25 26 25 23 26 23
14 14 15 19 25 26 25 24 17 15 15 19 18 16 19 18 25 23 22 21 20 20 20 17 17 16 15 14 14 13 13 11 13 12 12 13 14 16 17 18 17 17 15 16 15 16 17 18 18 19 19 19 17 18 19 19 20 19 19 18 19 19 19 20 19 18 16 16 17 17 17 18 18 20 20 20 21 21 20 22 23 23 24 24 23 24 26 25 25 24 23 23 23 23 23 26 22
20 15 18 23 24 23 22 18 14 14 16 20 23 14 20 21 16 22 21 23 23 23 22 21 19 18 17 16 16 14 12 12 11 12 12 12 13 14 15 16 16 16 16 16 16 16 17 17 18 18 19 19 18 19 20 19 19 19 20 20 19 19 20 20 19 19 18 16 16 16 16 17 17 18 20 19 20 23 24 25 24 23 23 23 24 25 24 25 24 24 23 23 24 23 23 22 23
13 16 15 15 15 15 13 15 14 13 18 17 22 21 25 19 18 20 21 23 26 27 24 22 21 20 19 18 15 14 14 12 13 12 11 11 11 12 13 14 15 15 14 15 15 16 17 17 18 19 19 19 20 20 20 19 19 18 18 17 19 21 20 20 19 20 18 16 17 16 15 16 17 17 17 18 20 22 24 24 24 24 24 24 22 24 23 24 24 23 23 22 23 23 22 24 25
22 19 21 18 15 14 12 11 12 14 17 16 13 21 21 23 19 23 24 28 28 23 23 22 21 20 19 17 17 17 16 14 14 12 10 9 10 10 12 14 14 14 14 14 15 16 17 18 18 19 19 19 19 20 19 20 19 18 18 17 18 20 20 20 21 20 19 17 17 16 15 15 14 17 17 17 18 20 22 22 22 22 21 20 20 22 24 23 24 23 22 22 23 24 24 24 23
21 21 20 20 15 13 14 14 12 17 19 16 14 16 18 24 16 20 23 16 19 21 21 23 23 23 21 19 18 17 14 13 12 12 10 9 9 10 11 13 13 14 14 15 15 16 17 18 19 19 20 20 20 21 20 21 20 19 17 17 18 19 20 20 20 20 20 19 17 18 15 15 14 15 16 17 17 18 19 19 19 22 22 21 22 23 23 21 21 21 21 21 23 23 24 24 23
17 18 20 18 14 16 17 18 16 20 18 15 12 14 18 27 27 19 25 23 17 18 21 23 23 22 21 20 17 15 14 12 12 10 9 7 8 9 10 11 12 13 14 15 16 15 17 17 19 20 21 21 21 21 20 20 20 19 19 19 18 19 19 20 20 19 18 18 17 16 15 16 15 14 15 17 16 17 20 21 20 22 21 22 22 20 20 21 20 22 19 21 22 22 23 23 24
17 20 20 19 16 15 13 14 14 16 16 15 14 12 22 20 18 14 20 25 19 17 17 19 21 20 20 19 17 16 14 12 11 10 10 9 8 9 9 10 12 13 14 17 16 16 16 18 19 20 21 21 22 21 21 21 20 20 19 18 19 18 17 16 17 18 16 16 15 15 15 16 15 15 14 14 15 16 18 20 21 21 22 23 22 20 20 20 21 22 21 24 24 23 21 21 22
19 12 16 18 17 19 17 20 18 18 14 15 14 16 16 17 15 12 12 14 20 17 18 15 17 19 17 17 17 15 14 13 12 13 13 11 10 9 10 11 12 12 14 15 15 17 17 18 19 21 21 21 22 22 21 22 22 21 20 19 18 17 16 16 15 15 16 15 15 15 16 16 16 15 16 15 15 16 17 17 17 19 21 22 22 21 23 23 23 23 23 25 23 22 23 25 23
12 12 14 18 21 13 19 14 18 16 14 14 21 16 12 16 16 13 11 12 17 19 19 18 18 18 17 16 17 16 16 15 15 14 14 12 10 9 10 10 12 13 14 14 15 16 17 18 18 20 21 20 21 22 21 21 21 20 19 19 19 18 17 16 15 15 15 13 14 15 15 15 16 17 15 15 14 14 15 16 17 20 21 22 22 22 23 22 23 25 24 23 22 20 22 24 22
17 17 21 16 16 16 14 8 12 7 15 27 10 18 20 13 21 16 14 16 19 20 20 21 21 20 18 18 17 17 16 16 15 14 13 13 12 10 10 11 12 14 15 15 16 16 16 17 18 20 21 20 21 21 21 20 20 19 19 18 18 18 17 16 17 16 16 15 13 12 14 15 15 16 16 14 14 14 15 16 17 17 19 19 20 21 22 22 23 24 24 22 22 20 20 21 19
16 18 14 15 13 13 14 16 12 14 20 16 15 19 17 15 15 15 17 18 21 22 22 22 21 20 20 19 18 19 17 15 14 13 13 13 12 10 10 11 13 14 14 14 15 14 14 16 17 19 20 21 21 21 22 20 20 18 18 19 19 18 17 16 17 17 18 17 16 15 14 14 14 15 16 15 14 14 15 16 18 19 16 16 18 19 21 22 21 21 21 22 20 19 21 19 21
17 14 17 17 14 14 17 16 17 18 18 21 17 14 20 19 16 19 19 23 24 24 23 23 23 22 21 19 19 18 16 15 15 15 15 15 14 13 10 11 13 13 13 13 14 15 15 15 16 18 19 19 20 19 19 20 19 18 19 20 19 19 17 17 16 17 17 17 18 17 16 17 15 14 15 14 15 15 14 15 16 16 17 18 18 19 20 21 23 22 22 22 21 21 22 22 19
12 14 17 10 17 16 10 13 17 18 20 15 18 16 17 17 16 17 21 25 25 25 24 24 24 23 21 20 20 19 18 16 16 15 15 15 13 10 9 10 14 14 14 14 13 16 16 16 16 17 19 20 19 19 19 19 19 19 20 20 19 20 19 18 17 17 17 17 18 18 17 16 17 16 16 15 16 15 13 13 14 14 14 15 17 18 20 20 20 20 20 22 22 25 24 25 22
19 19 19 15 16 12 18 16 20 18 20 20 21 22 15 13 13 15 19 21 23 24 25 23 23 22 21 18 18 17 16 16 15 14 13 13 12 11 10 10 13 12 13 13 15 16 17 18 17 17 18 20 20 19 19 19 19 19 20 20 20 20 20 19 18 17 17 17 17 17 18 18 18 16 17 17 17 16 14 13 13 13 14 15 15 17 18 20 21 20 22 23 25 23 23 22 19
15 14 16 14 14 13 13 19 15 20 20 20 18 23 17 18 10 12 15 16 17 20 21 22 21 21 19 18 16 15 15 15 14 12 11 11 11 10 10 11 12 14 14 15 16 16 17 18 19 17 17 19 19 20 19 19 18 19 19 20 20 19 20 20 19 17 17 18 17 18 17 18 17 17 17 18 18 16 15 14 13 13 12 13 14 16 16 16 19 20 21 20 19 21 23 22 19
Wind_Speed
6 4 2 5 5 5 6 6 6 5 6 9 7 6 2 3 1 3 2 3 1 4 6 6 5 3 6 1 4 2 8 7 6 9 2 4 3 10 6 12 15 14 14 14 15 14 14 14 14 15 17 17 18 18 18 19 18 18 18 17 16 15 16 15 14 14 13 13 12 12 12 12 13 13 13 13 13 14 13 13 14 14 14 15 15 15 15 15 15 14 14 14 14 14 14 14 14
3 2 4 4 5 5 4 2 6 8 7 8 7 6 4 4 3 1 4 6 5 6 9 7 6 6 8 7 4 5 7 8 7 3 5 6 9 6 9 14 15 15 14 13 14 13 14 14 13 15 17 18 18 18 19 19 17 16 16 16 15 15 14 14 13 13 13 12 12 12 12 12 13 13 13 13 13 12 13 14 15 15 15 15 15 15 15 15 14 13 13 13 13 13 13 14 13
2 5 4 5 6 7 4 5 9 9 9 10 7 5 4 6 5 2 4 6 7 7 8 8 7 6 6 5 6 1 7 6 8 6 7 11 9 7 11 14 14 15 15 13 13 13 12 14 13 14 17 17 19 19 19 17 17 16 16 15 14 13 13 12 12 12 12 12 12 11 12 12 13 13 13 13 13 13 14 14 15 15 15 14 14 14 14 13 13 12 12 12 12 12 13 13 12
3 4 5 4 5 4 6 6 9 9 9 8 8 5 3 2 4 4 2 5 7 6 6 4 6 4 6 8 4 4 2 5 5 6 7 7 5 10 13 13 14 13 13 12 13 12 12 15 15 14 17 17 18 18 18 17 17 16 16 16 14 13 13 13 13 13 12 11 11 11 12 12 13 13 13 13 14 13 12 14 15 15 14 14 13 13 12 12 11 11 11 11 12 12 13 12 12
5 3 5 5 7 6 5 5 7 6 10 8 6 6 4 4 4 5 5 4 5 6 5 4 5 4 4 5 6 3 5 1 7 5 6 6 11 11 14 14 14 13 13 13 13 12 13 18 14 13 14 17 16 16 17 17 16 16 17 16 15 14 14 14 13 13 12 11 11 11 12 12 13 13 13 13 14 13 12 12 13 14 14 13 13 12 12 11 12 13 12 13 13 13 12 12 12
5 4 4 6 4 5 5 6 9 9 9 4 6 4 4 5 8 8 8 5 4 4 3 5 6 2 6 4 5 4 5 1 4 5 6 8 12 13 13 13 13 13 13 13 12 11 14 18 15 14 14 14 15 16 17 17 16 16 16 16 15 14 14 13 13 12 11 11 11 10 11 12 13 13 13 13 14 14 14 13 12 12 13 12 12 12 12 12 13 14 13 13 13 13 12 12 11
4 6 4 5 3 4 7 8 9 7 2 2 7 7 7 7 8 9 9 7 3 2 1 4 4 4 6 6 10 8 7 3 0 5 5 12 12 14 13 10 13 13 14 13 11 12 17 17 15 14 14 15 16 16 16 16 16 16 15 16 16 15 14 13 13 12 12 11 11 10 10 11 12 12 12 13 14 14 13 14 13 11 11 11 11 12 13 13 13 14 13 13 13 12 12 11 11
3 7 3 7 4 4 9 10 9 5 3 3 4 8 8 9 9 7 9 7 2 4 4 4 4 8 5 7 3 6 8 9 6 8 12 12 13 14 14 12 12 13 12 12 12 13 18 16 14 14 14 15 16 16 16 16 15 16 15 15 15 15 14 13 12 12 12 11 11 11 11 11 11 12 12 12 13 13 13 13 13 13 11 11 11 11 13 13 13 13 13 13 13 12 11 11 11
5 6 1 6 8 4 7 7 8 2 8 4 6 4 4 7 7 8 9 6 7 6 7 6 5 8 6 4 6 6 9 9 10 10 11 12 12 13 10 12 12 12 8 11 12 14 15 16 14 14 14 16 16 16 15 16 16 16 16 16 15 14 14 13 13 12 12 11 11 11 11 11 11 11 12 12 12 13 13 13 13 13 13 12 12 12 13 13 13 13 13 13 13 12 11 11 11
5 5 5 7 7 7 8 8 8 7 5 3 6 7 6 5 7 7 9 9 5 4 5 2 3 7 10 7 7 5 6 9 9 10 11 11 12 11 11 12 13 14 9 12 13 14 12 16 15 13 14 14 15 15 15 14 14 14 15 15 14 13 14 13 12 12 12 12 11 11 12 12 12 11 12 12 12 13 13 13 13 13 13 13 13 13 13 13 13 13 13 13 12 12 11 11 11
7 6 5 6 8 9 10 8 8 5 7 6 6 5 3 3 6 8 8 8 5 6 0 4 7 8 7 7 5 5 4 7 9 11 12 12 11 11 11 12 14 12 11 13 13 13 14 15 17 15 13 14 14 14 15 14 14 14 13 13 13 13 12 12 11 11 12 11 10 11 12 12 12 12 12 11 12 13 13 13 14 14 13 13 13 14 14 13 12 12 12 12 12 12 11 11 11
9 6 6 10 11 9 8 9 6 4 4 4 7 2 1 4 5 7 5 5 2 2 0 4 6 9 8 8 5 5 7 7 8 10 12 11 11 12 12 11 15 11 13 14 14 14 15 15 15 15 15 15 14 14 14 14 14 13 13 13 13 13 12 12 12 12 12 10 11 11 11 12 12 12 12 12 11 12 12 13 13 14 13 12 13 13 14 13 13 12 12 12 11 11 11 11 11
10 7 9 9 9 9 8 5 5 3 5 6 3 6 1 5 5 4 4 3 1 5 4 4 2 6 6 5 6 7 8 8 8 10 11 10 10 10 10 9 14 15 13 13 14 15 16 15 14 15 16 17 16 16 15 15 14 14 13 13 13 12 12 12 12 12 11 11 11 11 11 11 11 12 12 12 12 12 12 12 13 14 14 12 13 13 13 13 12 12 12 11 11 11 11 11 11
10 7 7 9 6 7 6 6 4 4 7 4 3 2 2 3 2 5 3 1 7 5 4 4 3 5 8 9 8 8 8 9 10 11 9 10 8 8 13 7 13 14 15 14 14 15 15 14 13 14 16 15 15 15 16 17 16 15 15 15 13 14 13 13 13 13 12 12 11 11 11 11 12 11 12 12 12 12 12 12 13 13 13 12 12 12 12 12 12 12 12 11 11 11 11 11 11
10 6 8 9 7 7 8 8 6 7 3 7 7 0 0 2 4 3 5 3 3 3 3 1 5 5 7 10 10 10 11 12 12 12 12 11 15 11 11 10 11 13 13 14 14 14 14 14 14 13 14 14 14 12 12 14 17 17 17 15 15 16 15 14 15 14 13 12 12 11 11 11 11 12 11 11 12 12 12 12 12 13 13 13 12 12 12 12 12 11 12 11 11 11 11 11 10
9 4 7 9 9 7 6 8 5 5 4 6 8 1 2 5 3 3 7 5 5 4 3 2 2 3 6 9 13 14 14 14 13 13 12 14 13 12 12 7 6 7 8 11 12 12 12 13 12 11 12 12 11 10 11 13 15 16 16 17 17 17 17 17 16 15 15 14 13 13 12 11 11 11 12 11 12 12 12 10 12 11 12 13 12 12 11 11 11 11 11 12 12 11 11 11 10
5 6 9 8 10 9 5 7 6 8 7 6 6 4 3 5 4 6 2 3 5 6 6 5 3 1 4 11 15 16 15 13 13 13 11 9 10 9 11 10 8 6 5 7 8 7 7 10 11 7 9 10 9 9 8 10 12 15 13 15 15 16 16 17 16 15 15 14 13 12 12 9 9 9 10 9 13 10 10 12 12 12 12 12 12 11 11 10 10 11 12 12 13 13 12 11 10
7 9 8 10 8 8 6 7 7 4 9 8 6 3 3 6 4 4 7 8 7 5 9 9 9 11 10 12 12 11 12 12 10 10 8 7 7 8 9 11 8 8 6 2 10 10 10 10 2 5 5 6 6 5 4 6 8 10 10 11 11 12 13 14 13 12 13 12 13 12 9 8 7 8 8 10 8 10 10 11 12 12 11 11 11 11 10 10 10 11 12 13 13 14 15 8 8
9 7 9 9 8 4 5 6 5 6 7 8 7 3 3 8 6 3 3 6 3 8 9 9 13 12 12 10 10 9 11 7 2 6 8 6 7 9 8 10 11 8 5 6 6 7 4 1 9 14 16 10 2 4 1 4 6 6 7 8 8 10 11 12 11 11 11 11 12 10 8 7 7 7 7 7 6 7 9 11 12 12 11 11 11 11 10 10 10 11 14 13 13 15 11 6 6
9 7 8 8 4 4 6 6 8 0 6 7 6 5 5 8 6 5 6 11 8 6 5 8 11 11 7 5 4 8 7 6 6 7 7 5 7 8 8 9 11 12 10 8 7 5 7 8 9 3 2 5 6 2 6 5 6 5 2 5 5 8 8 9 9 10 9 9 9 8 7 7 6 6 8 8 9 8 9 10 10 12 13 12 12 10 10 9 11 12 12 13 11 9 4 5 5
6 7 7 5 7 5 7 7 7 5 1 2 2 5 5 10 10 10 3 12 7 6 6 7 9 9 10 9 5 6 6 10 16 20 18 13 7 6 5 5 7 9 8 9 7 9 9 6 2 7 4 3 2 4 2 5 2 3 7 6 4 6 7 7 7 8 7 8 8 6 7 6 6 6 7 7 7 7 8 8 9 9 9 10 13 8 8 9 9 9 9 10 6 5 4 4 3
4 8 4 1 6 7 10 9 5 3 3 0 2 3 6 5 14 15 16 10 6 4 7 9 8 6 5 3 5 9 11 12 11 11 11 10 15 14 13 11 7 6 8 6 10 9 6 5 3 4 3 4 4 2 3 3 2 2 1 0 6 9 4 5 6 5 6 6 6 6 6 6 6 6 7 7 7 7 7 8 7 7 7 9 10 7 7 8 7 7 8 7 4 4 4 5 5
7 3 3 4 7 6 10 7 6 1 3 3 4 6 6 9 10 13 15 13 7 5 7 9 11 8 6 2 4 8 9 11 9 10 5 6 9 5 4 3 8 6 5 9 7 9 6 5 5 3 3 3 4 3 3 4 3 1 3 4 3 3 8 7 5 3 3 4 5 4 5 5 6 5 7 7 7 6 7 6 6 7 7 7 7 7 7 7 5 6 5 5 4 5 5 5 4
8 7 4 7 7 5 5 6 5 5 6 7 6 6 6 7 12 11 14 10 7 6 6 9 12 12 9 7 7 11 12 12 11 10 7 6 5 4 4 3 1 5 7 8 10 7 4 5 4 4 4 3 2 1 2 2 2 1 1 2 3 3 2 3 7 8 6 4 4 4 4 5 6 6 6 7 7 6 6 6 6 6 5 6 6 5 6 5 5 5 5 5 5 5 5 5 4
4 7 7 7 6 2 4 4 7 8 9 8 9 12 12 13 11 12 14 10 6 7 7 8 9 12 11 11 12 13 12 13 11 10 8 6 4 3 1 5 7 7 10 9 9 7 7 6 3 4 3 4 3 4 3 1 2 2 2 2 2 3 3 4 2 3 5 5 5 4 5 5 6 6 6 6 5 6 5 5 5 5 5 5 4 5 5 6 5 5 5 5 5 4 5 4 4
7 6 7 5 4 3 4 6 8 9 6 8 12 11 8 8 11 16 11 9 7 7 9 7 9 9 11 12 12 13 12 12 12 10 8 10 5 3 8 8 9 10 10 10 8 9 6 4 4 5 5 4 2 1 1 2 2 1 2 4 3 3 4 5 5 4 4 3 5 4 7 5 6 6 5 5 5 5 5 5 4 4 4 4 5 5 4 4 5 5 5 6 6 5 5 5 4
10 4 2 3 4 5 3 7 8 7 6 8 13 11 11 9 4 8 10 8 10 12 13 12 11 12 13 12 14 14 14 13 13 12 11 9 7 9 10 10 11 10 10 11 10 10 9 7 6 6 5 4 2 1 1 1 1 2 3 5 5 4 4 3 4 5 5 4 5 5 4 8 6 5 4 4 4 4 4 5 5 4 4 4 4 4 5 5 5 5 5 5 5 5 5 5 5
5 6 5 5 8 8 6 7 9 8 8 9 14 14 12 10 13 9 8 5 8 11 11 13 9 10 12 14 13 13 12 12 12 13 14 12 9 9 10 8 8 9 11 11 10 10 10 10 9 8 7 6 5 3 2 1 1 3 4 5 6 5 4 5 5 5 3 3 5 4 4 4 10 7 7 3 3 3 4 4 4 4 4 4 4 4 4 5 6 5 6 5 5 5 5 5 5
7 8 8 8 8 8 6 5 4 2 8 2 7 12 12 12 8 8 7 5 8 11 14 14 12 12 13 12 12 12 12 12 12 12 12 11 11 10 12 11 10 10 9 12 12 13 12 10 8 9 7 6 6 5 5 3 2 3 2 4 5 6 5 5 5 5 4 3 2 2 3 4 3 6 7 6 4 4 4 4 4 4 4 4 4 4 5 5 5 5 6 6 7 6 6 6 5
7 4 6 10 9 6 7 4 3 5 5 2 5 5 6 9 8 7 5 5 8 12 11 12 12 12 12 13 12 13 13 12 12 12 11 11 11 10 12 12 12 10 9 9 11 12 9 7 6 6 7 7 7 6 4 4 3 2 3 3 3 5 5 5 6 4 5 4 1 4 5 5 7 6 7 3 5 7 5 5 5 5 5 5 4 5 5 5 6 6 7 7 7 7 7 6 5
6 4 5 7 8 6 5 4 2 4 4 3 6 0 5 8 7 6 5 4 8 12 11 12 12 12 12 12 13 14 14 13 13 13 12 11 11 11 12 12 12 12 9 10 11 10 10 8 6 6 8 7 6 6 6 5 4 4 4 4 3 3 4 5 5 3 4 4 4 5 9 11 11 9 6 6 8 7 6 7 6 7 6 6 6 6 6 6 6 7 7 8 8 7 7 7 7
5 9 8 7 8 7 5 4 3 1 6 3 7 5 5 7 7 6 4 6 9 12 11 12 12 12 12 12 13 13 13 13 13 13 12 12 11 11 12 13 12 12 12 11 10 10 10 10 9 8 9 8 7 5 5 5 4 4 4 4 5 5 5 5 5 5 6 6 6 7 9 9 8 8 7 6 5 5 7 7 8 7 8 6 6 6 7 6 6 7 8 8 7 9 8 8 7
2 6 6 7 2 5 6 4 2 3 5 5 8 5 8 8 7 6 4 6 9 12 12 13 13 13 11 11 10 11 12 12 13 14 13 11 11 11 11 12 12 12 12 12 12 11 11 10 9 10 10 9 7 6 5 4 4 4 4 4 4 5 5 5 6 5 5 5 6 7 8 9 10 10 10 8 7 8 6 6 7 8 7 8 7 7 7 7 6 7 7 9 8 8 9 9 8
1 2 3 3 9 6 7 7 2 1 5 7 5 8 8 10 9 8 5 7 9 11 11 11 10 10 11 10 11 11 11 11 12 12 12 12 10 12 11 11 12 12 12 12 12 11 11 10 9 9 9 9 7 6 5 3 2 3 3 3 3 4 5 6 6 6 6 5 6 8 9 9 9 10 10 10 10 10 9 9 3 8 8 8 8 8 8 7 8 7 8 8 8 9 8 8 8
8 9 8 9 9 10 6 8 4 4 5 6 8 11 12 11 10 8 7 6 9 10 10 10 10 10 10 10 11 12 11 11 11 10 11 11 11 11 10 11 11 12 10 12 11 11 10 10 9 9 9 10 9 7 6 5 3 3 3 3 3 3 3 3 4 5 5 5 5 6 8 8 9 11 10 10 10 11 10 10 7 10 9 9 9 9 9 9 8 8 9 8 8 9 8 8 8
14 15 12 11 10 7 4 7 4 3 8 7 9 9 12 12 10 9 8 8 9 10 10 9 9 9 9 9 9 9 10 11 9 9 10 10 10 10 10 10 10 10 10 10 11 11 11 10 10 9 9 9 8 8 7 7 6 6 5 5 4 4 4 4 4 5 5 6 6 6 7 7 8 9 11 11 10 10 11 10 9 10 12 9 9 9 9 9 10 10 10 10 10 10 10 8 7
8 12 10 11 9 7 8 8 7 5 6 4 9 13 12 12 10 10 9 9 9 9 9 8 8 7 7 8 9 10 10 9 8 9 9 10 10 10 9 10 10 10 11 11 11 11 10 10 10 10 9 9 8 8 8 7 7 7 6 6 6 5 5 5 5 5 5 5 6 7 7 6 8 8 9 10 10 10 11 10 10 10 9 10 9 9 9 10 9 9 9 9 10 11 10 9 7
10 10 10 9 10 9 6 6 3 3 3 8 10 12 11 11 10 9 8 8 8 8 8 8 8 7 7 8 8 9 8 7 8 8 9 10 10 10 9 9 10 11 10 11 10 10 9 10 10 10 9 9 8 8 8 7 7 7 7 7 7 7 6 6 6 5 6 6 5 5 6 7 7 8 8 10 11 11 11 11 10 11 10 10 10 9 9 10 10 9 9 9 9 11 10 10 8
8 7 8 9 7 8 7 5 2 3 6 8 11 10 9 9 9 7 6 6 6 5 5 6 6 6 6 7 8 8 8 7 7 8 9 8 10 10 9 9 9 9 9 10 10 10 9 9 9 9 8 9 8 8 8 8 8 8 8 8 8 8 7 6 7 6 7 8 8 9 8 8 8 8 9 9 9 11 12 11 11 10 10 9 9 10 9 10 10 11 12 10 9 9 9 9 9
5 7 8 6 10 10 8 4 2 1 3 10 10 9 8 8 7 7 4 6 6 5 5 5 4 5 6 6 6 6 7 7 8 7 8 8 9 9 10 10 9 9 9 9 10 10 8 9 10 10 9 8 8 8 8 9 10 10 9 8 9 8 8 7 8 8 9 9 9 9 8 8 9 9 10 10 10 11 12 11 9 9 10 10 10 10 10 11 12 11 11 12 11 10 10 10 11
2 3 5 8 11 4 7 7 5 6 5 10 10 6 7 8 9 7 6 4 6 5 5 5 4 5 6 6 7 6 7 7 6 7 8 8 9 10 10 10 9 10 10 10 10 10 8 10 11 11 9 9 8 9 9 9 9 9 8 8 8 8 8 8 7 7 7 7 7 7 7 8 8 8 9 10 10 10 11 11 9 8 9 9 9 10 10 12 12 11 13 12 13 11 11 10 10
4 3 1 8 8 7 10 12 10 7 6 8 11 6 7 8 9 9 8 7 7 6 6 6 5 5 5 6 7 6 6 6 6 7 7 8 8 9 10 10 10 9 9 8 8 8 9 9 10 10 9 8 9 9 10 9 8 8 8 8 7 7 7 7 7 7 6 6 7 7 7 8 8 8 9 10 10 10 11 12 11 10 11 10 10 10 11 10 12 13 13 12 13 14 11 10 10
5 5 2 7 7 8 12 12 8 6 5 9 6 7 2 9 11 9 9 10 9 8 7 7 7 6 5 6 6 5 5 5 5 5 6 7 8 8 9 10 10 9 8 7 7 8 9 9 9 9 9 8 8 9 10 9 9 8 9 9 9 8 9 8 7 7 7 7 6 7 7 8 9 9 9 9 10 10 11 11 12 11 11 10 10 11 11 11 11 13 12 12 12 11 13 12 12
3 7 6 8 7 9 10 8 6 2 6 8 8 5 7 6 10 12 12 10 10 11 10 9 7 7 7 6 6 6 5 4 5 5 5 6 7 8 9 10 9 8 7 7 7 8 9 9 10 10 9 9 8 9 10 10 10 9 10 10 9 9 9 9 10 9 8 7 7 7 6 7 8 8 9 9 9 10 10 11 11 12 12 11 10 10 10 10 10 11 11 11 11 11 12 12 11
7 7 8 6 6 6 7 7 4 3 5 6 9 5 7 7 3 12 11 11 12 12 12 11 10 9 9 8 7 6 4 4 4 4 4 5 6 7 7 8 8 7 7 7 7 7 8 8 9 10 10 9 9 11 11 10 10 10 10 9 9 8 9 9 9 8 8 7 8 7 7 7 7 8 8 9 9 10 10 11 11 11 9 9 5 5 8 9 9 13 10 10 9 9 10 11 10
6 7 5 1 1 3 4 5 3 3 6 6 9 9 8 7 4 7 10 12 13 13 13 11 11 10 10 8 7 6 6 5 5 4 4 4 4 5 5 6 7 6 6 7 7 7 8 9 10 11 11 9 10 11 10 11 11 9 9 9 11 10 9 9 9 9 8 8 8 8 7 6 6 7 8 9 9 10 10 11 11 11 10 9 5 7 11 11 14 12 9 8 8 9 9 10 10
11 9 8 6 5 3 2 2 2 4 6 6 5 10 8 6 7 8 9 11 12 11 10 10 11 11 10 8 8 8 7 5 5 5 3 3 3 3 5 6 7 7 6 7 7 7 8 9 10 11 10 9 10 11 10 11 11 10 9 9 10 11 11 10 10 10 9 8 8 8 7 6 6 6 7 7 8 9 9 10 10 10 8 7 4 10 8 9 10 6 8 4 8 10 12 10 11
11 7 6 5 4 3 4 4 3 5 6 5 6 6 9 9 5 6 8 8 9 10 10 12 13 12 11 10 8 8 6 5 4 4 3 2 2 3 4 6 6 7 7 7 7 7 8 9 10 11 10 10 10 10 10 10 10 10 9 9 10 10 11 9 10 11 10 10 9 8 7 6 6 6 6 7 7 7 8 8 8 9 9 8 10 10 7 9 9 6 5 7 4 7 12 12 9
7 7 7 7 3 3 5 5 6 5 5 3 1 4 6 11 10 8 3 7 7 8 8 10 12 12 11 11 9 7 6 4 4 3 2 0 1 2 4 5 5 6 6 7 7 7 8 9 10 11 11 10 11 10 10 11 11 10 10 10 10 9 10 10 10 10 9 8 7 7 7 7 6 6 6 6 6 7 7 8 8 8 8 9 9 9 8 10 11 8 8 7 8 11 9 10 9
7 7 7 7 4 4 5 4 4 4 4 4 2 3 8 8 6 4 5 4 7 8 8 10 12 11 11 10 8 6 5 4 3 3 2 2 1 2 2 3 5 5 6 6 6 7 7 8 10 11 11 11 10 11 10 11 11 11 10 9 9 8 8 8 8 8 8 7 6 6 7 7 6 6 6 6 5 7 7 7 8 9 9 9 9 10 10 11 11 10 11 10 10 9 7 9 9
7 3 5 7 5 4 6 7 6 6 2 4 5 4 4 8 4 3 0 3 5 7 8 7 8 10 9 8 8 7 6 5 4 4 4 3 3 2 2 2 3 4 5 6 5 6 7 8 9 11 11 11 11 11 10 10 9 10 9 9 9 8 8 7 6 6 7 7 7 7 7 7 7 7 6 6 6 6 8 8 8 8 8 9 9 9 10 12 12 11 10 11 10 8 7 5 5
2 3 4 6 7 4 6 4 6 6 3 4 8 4 1 3 5 4 2 4 7 9 9 9 9 8 8 7 8 7 7 6 6 5 5 5 3 3 2 2 3 3 5 5 6 6 7 8 9 11 11 10 11 11 10 9 9 8 10 9 9 9 7 7 7 7 7 6 6 6 6 7 7 7 6 6 6 6 7 8 9 9 8 9 9 9 9 9 10 10 10 11 12 9 7 7 7
5 6 8 1 5 4 0 2 3 0 4 9 2 6 7 2 8 7 6 7 9 10 11 11 11 11 9 8 8 8 7 7 7 6 5 5 5 4 2 2 2 3 4 5 5 6 7 8 9 10 10 10 11 11 10 9 8 9 9 9 10 10 9 8 7 9 8 7 6 4 4 6 7 7 6 6 6 6 6 7 8 8 9 7 8 9 9 9 9 10 9 9 9 7 7 8 9
3 6 2 6 4 5 3 5 2 4 7 3 3 8 7 4 1 3 7 7 10 12 11 12 12 11 11 9 9 9 8 7 7 6 6 5 5 3 3 2 3 3 5 5 5 6 6 7 9 10 10 11 12 10 10 9 9 8 9 9 9 9 8 8 8 8 8 7 7 6 6 5 5 6 6 6 6 6 6 7 8 8 7 7 8 9 9 8 8 8 9 8 6 6 7 8 9
6 4 4 6 3 6 6 3 7 7 7 6 6 5 8 7 2 7 8 9 11 12 12 12 13 12 11 10 10 9 8 7 6 6 6 6 5 5 3 2 4 3 4 5 4 7 6 7 8 8 9 10 11 9 9 8 8 7 7 9 10 9 9 8 7 8 8 8 8 8 7 7 6 6 5 5 6 6 5 6 6 7 7 8 9 9 8 8 8 7 9 9 8 9 10 10 10
2 3 6 1 5 5 3 3 6 4 8 6 7 5 4 3 4 1 4 8 10 11 12 13 13 13 11 9 9 9 9 7 7 6 6 6 5 4 2 2 4 4 4 5 4 6 7 7 8 8 8 9 10 10 9 9 9 8 9 9 10 10 9 9 8 8 7 7 8 8 8 8 8 7 7 7 5 5 5 5 6 6 6 7 8 8 8 10 7 7 8 8 9 11 13 13 12
7 7 6 5 5 3 5 4 7 5 6 6 7 8 5 1 4 2 3 3 7 10 12 11 11 12 11 9 8 7 8 7 7 6 5 5 5 4 3 3 3 3 3 4 5 7 7 7 7 7 8 9 9 10 9 7 8 8 10 10 10 10 10 9 10 9 8 8 7 8 8 8 8 7 7 7 7 8 5 5 6 6 6 6 7 8 7 8 9 10 7 10 14 13 11 11 8
5 4 6 5 5 4 5 6 4 7 5 6 6 8 5 4 1 1 3 2 3 7 10 11 11 12 10 9 8 7 6 7 6 5 4 4 4 3 3 2 3 3 4 5 6 6 7 7 7 7 7 8 9 9 9 9 7 8 9 10 10 10 9 9 10 8 8 8 8 8 8 8 8 7 7 7 7 6 5 4 5 6 5 6 6 8 8 8 7 8 10 6 4 6 8 10 5
Wind_Direction
238 225 207 228 248 261 268 220 256 188 244 254 254 219 144 127 104 243 304 322 251 47 344 329 313 257 250 11 20 349 7 12 334 329 108 58 162 133 131 133 134 138 135 136 133 139 135 131 136 137 136 135 133 133 130 129 128 127 123 121 121 121 123 125 128 128 128 127 129 132 132 129 127 125 123 124 124 123 121 121 118 116 113 113 112 109 108 107 104 103 100 97 92 88 88 87 85
225 224 213 225 247 260 213 314 257 259 250 256 250 265 120 146 229 266 316 344 9 341 326 314 296 277 259 259 293 342 132 112 322 50 77 120 124 125 126 135 138 140 135 135 138 140 138 135 136 139 138 138 134 132 130 128 123 119 118 119 122 122 123 124 123 125 124 126 128 133 131 129 127 125 125 125 126 122 121 120 118 117 115 114 112 111 108 107 106 103 99 96 92 85 83 85 87
206 222 202 221 238 251 287 230 259 251 250 248 242 245 134 228 244 261 356 335 337 333 312 301 297 258 233 208 244 267 56 75 124 109 102 131 128 128 133 139 138 140 134 135 137 140 138 140 140 138 138 138 134 130 127 123 121 121 121 121 122 121 119 119 118 117 122 126 130 132 127 126 124 126 127 128 127 122 123 122 121 119 116 113 113 110 109 109 105 102 102 102 97 95 94 91 91
258 251 269 231 236 212 248 233 251 260 255 256 254 154 226 217 239 324 353 358 317 309 304 290 272 66 256 195 155 48 51 26 32 102 126 145 127 135 137 139 141 135 136 135 141 140 139 138 144 140 141 139 134 127 122 125 125 126 127 126 125 123 123 126 125 127 129 130 132 127 125 126 128 128 131 130 126 126 124 124 122 119 115 115 114 113 111 110 113 110 106 102 102 103 100 97 95
230 199 252 260 275 232 261 270 278 267 257 259 249 190 189 272 313 337 327 345 309 294 279 284 253 123 320 335 59 263 62 299 55 51 121 115 125 134 141 144 139 141 134 137 138 137 134 141 141 139 138 138 132 127 126 127 128 129 130 129 130 130 131 132 131 132 130 129 124 127 127 127 129 130 133 131 128 127 126 124 124 122 120 118 116 115 113 113 110 110 107 104 104 103 102 102 100
221 216 197 253 271 10 260 244 237 245 260 326 272 272 335 313 322 339 314 324 344 268 297 261 282 185 179 47 23 65 9 158 7 56 108 120 130 133 142 145 145 135 135 139 139 137 141 141 142 141 139 136 132 131 131 130 132 133 132 133 134 134 134 133 133 132 131 129 128 129 127 128 129 133 134 132 130 129 128 125 121 121 121 118 114 112 112 111 109 109 108 105 104 104 105 106 104
199 207 176 201 199 228 261 256 258 260 138 240 278 302 309 320 331 323 304 313 164 284 176 258 240 214 204 128 94 61 45 5 122 87 139 132 133 138 139 149 145 135 138 137 140 138 136 141 142 143 142 139 138 136 135 134 135 135 136 137 137 137 136 136 133 134 135 134 131 131 129 129 131 133 134 132 132 132 129 126 123 120 116 114 113 112 112 111 111 108 108 107 107 108 108 108 106
276 263 156 238 213 212 231 252 259 242 143 254 322 296 309 320 325 306 298 297 237 256 157 225 240 262 99 212 135 66 54 47 66 102 127 133 140 144 147 149 144 138 137 135 141 134 133 142 143 145 145 143 141 141 139 140 139 140 140 140 140 138 139 138 137 138 138 137 136 136 133 133 131 134 135 132 133 132 130 128 125 121 112 105 106 110 112 113 113 113 110 111 112 112 111 108 106
199 249 113 264 246 212 260 244 254 139 286 263 255 261 293 298 305 295 279 270 287 245 249 225 208 237 125 128 88 79 61 61 74 104 125 138 139 143 146 147 142 121 126 142 131 133 143 143 144 145 145 144 145 144 143 144 145 143 144 144 142 141 141 141 142 141 139 141 140 136 135 135 134 135 136 135 133 133 133 130 128 122 116 111 110 111 112 114 114 114 113 115 116 115 112 109 108
193 249 199 239 264 239 239 235 236 248 238 279 292 303 303 310 292 277 279 269 278 302 251 300 259 246 121 129 132 76 56 72 105 121 133 138 142 142 141 143 136 124 152 135 134 137 142 144 146 145 145 147 147 146 147 146 147 147 147 147 145 143 143 144 143 142 143 142 138 139 137 136 137 138 138 138 137 135 134 134 129 122 118 116 117 117 117 116 117 117 118 117 118 115 114 111 109
225 188 310 248 227 244 246 243 235 211 226 253 265 253 280 277 272 280 273 282 290 285 138 212 210 196 159 102 76 78 85 115 129 131 143 143 143 146 143 142 120 132 147 139 138 140 141 152 149 149 147 147 149 148 148 150 151 150 146 147 146 144 143 141 140 141 144 141 136 137 139 139 139 140 140 140 139 139 137 135 132 126 122 121 120 121 123 123 123 121 120 121 118 119 116 114 112
239 210 197 239 246 246 240 249 243 254 267 259 253 179 155 279 278 263 266 270 165 199 82 194 197 165 161 134 113 103 115 126 130 138 145 146 146 149 141 139 131 141 143 143 142 141 146 149 156 152 151 150 150 151 152 152 153 151 150 147 149 147 143 140 137 141 145 141 138 139 141 140 141 141 142 142 140 138 138 140 137 132 128 124 123 122 126 128 127 126 124 122 120 119 118 117 114
245 229 221 237 243 240 254 269 255 313 283 212 224 93 339 274 272 308 312 282 199 205 102 12 51 160 155 132 129 137 129 136 146 142 139 150 139 137 115 122 141 145 147 148 146 145 151 155 155 162 156 153 155 157 156 155 156 154 153 150 150 149 146 142 141 145 146 141 140 143 145 146 144 143 144 143 143 139 140 140 140 135 131 129 127 127 127 129 130 130 129 126 124 121 122 118 118
231 232 236 245 242 265 247 242 262 235 220 127 155 66 26 300 352 321 307 264 23 13 30 355 240 174 120 127 146 146 135 150 145 142 134 134 116 109 119 165 153 149 149 153 149 151 154 156 157 160 158 161 160 159 161 161 160 159 154 153 151 151 148 146 147 148 147 143 143 141 143 147 148 144 145 145 143 143 140 141 142 140 137 133 132 131 129 129 133 133 131 129 126 125 121 121 117
229 220 243 252 241 227 232 247 216 222 228 139 106 40 288 75 324 316 351 42 102 8 64 83 8 183 177 182 156 153 152 153 144 137 135 126 127 139 132 160 152 151 154 153 153 157 159 159 160 155 165 165 160 166 166 165 165 162 159 155 154 154 153 151 152 152 149 148 143 142 143 146 147 148 149 147 146 142 140 141 142 146 143 138 136 133 132 133 136 139 136 132 129 127 123 119 119
234 217 235 240 235 229 183 229 235 238 143 168 110 106 202 87 21 340 43 355 83 44 324 102 341 302 155 182 149 146 147 148 142 139 135 134 132 132 130 121 113 140 148 156 155 162 162 161 158 159 165 162 164 163 167 166 166 167 164 162 160 157 158 157 156 155 154 152 149 148 149 150 153 151 152 154 147 145 147 147 142 146 148 143 138 135 133 135 139 142 140 137 132 128 122 120 120
224 233 222 229 238 208 159 215 179 212 114 160 129 193 230 112 79 69 16 51 74 72 75 37 76 166 122 122 131 143 139 140 139 131 137 136 132 133 129 131 161 143 154 148 164 152 156 158 151 154 162 157 162 158 161 165 163 166 166 168 165 163 162 162 160 158 158 157 155 154 160 171 159 150 165 155 152 157 139 134 146 146 148 147 141 137 133 134 137 143 143 139 135 129 124 122 120
203 210 223 220 233 201 173 213 189 87 150 140 151 115 239 139 147 93 117 44 77 76 73 70 78 80 96 107 115 127 132 124 126 133 135 150 139 135 148 135 156 146 134 31 29 25 355 346 344 133 150 157 149 154 137 161 157 174 168 168 172 169 168 166 166 168 172 165 167 158 174 171 167 162 157 152 158 146 147 145 145 145 146 147 144 139 132 131 136 141 146 143 137 137 147 143 134
198 210 220 232 210 191 170 204 149 171 140 136 119 102 9 60 323 83 187 98 54 78 75 97 94 81 57 81 89 68 74 48 157 125 138 158 133 136 146 146 135 124 142 118 148 149 123 94 34 1 354 347 51 43 109 88 156 193 177 172 176 184 173 178 178 177 180 171 172 172 171 171 173 159 160 166 151 141 137 154 150 143 146 146 147 140 137 131 133 143 146 147 149 161 181 138 142
212 236 212 232 155 165 204 186 164 261 113 145 160 109 58 40 23 307 114 91 22 57 103 106 98 87 89 324 115 139 130 163 145 131 111 122 117 129 142 145 137 138 139 144 148 112 69 62 76 121 50 14 72 297 5 36 340 293 205 188 179 193 185 191 188 188 185 183 173 171 173 166 172 165 137 140 148 158 147 157 154 148 147 147 144 148 140 134 131 141 147 152 166 184 164 147 137
157 235 222 206 174 181 189 177 161 133 360 83 100 127 94 47 34 20 336 142 94 33 55 101 110 131 152 170 176 120 99 62 31 23 15 20 29 62 77 82 109 124 112 120 104 87 80 68 114 158 163 167 1 41 39 98 83 358 318 315 245 197 202 203 195 197 199 187 178 180 174 167 173 169 166 171 183 166 161 167 167 178 168 160 169 165 170 150 166 157 154 175 189 173 163 128 122
142 221 313 127 165 217 160 176 140 81 45 52 151 166 87 89 41 36 36 73 70 64 66 93 107 91 78 109 110 101 89 80 75 80 78 38 8 11 358 359 13 62 116 125 100 98 121 146 149 43 75 100 78 67 14 25 63 16 353 181 329 312 277 216 202 206 198 198 199 188 178 173 180 178 173 175 185 175 173 169 182 172 177 172 185 174 173 172 183 166 173 190 173 178 149 147 140
197 174 225 225 173 203 147 161 99 76 122 121 118 73 96 83 71 49 56 60 72 77 107 97 106 127 120 295 31 68 78 87 88 79 57 92 109 51 7 54 309 42 55 71 79 82 85 65 64 54 8 22 69 70 39 17 34 81 2 336 346 349 338 320 289 232 224 216 217 204 186 186 191 187 176 178 191 177 185 182 179 180 183 183 183 190 173 183 179 169 179 182 179 167 166 147 151
276 164 168 189 176 184 140 80 83 111 96 93 86 92 95 98 71 52 61 56 70 76 78 93 110 124 131 155 116 77 72 84 93 96 79 50 41 74 266 209 177 44 55 61 63 56 52 63 76 80 67 45 19 99 99 38 32 2 11 324 11 320 293 326 325 328 324 215 231 238 212 206 202 199 184 185 187 189 189 188 186 192 181 186 183 199 176 177 186 173 178 182 189 175 161 168 155
227 152 171 143 199 113 63 87 107 106 98 104 100 84 76 76 76 64 51 53 64 91 100 106 104 110 118 104 92 85 80 78 79 84 86 69 22 12 24 34 38 35 49 59 91 69 358 351 38 86 81 53 34 343 345 51 59 347 329 294 308 282 289 272 229 208 229 288 246 248 242 233 217 212 195 192 193 196 193 190 197 197 188 189 184 193 187 177 190 181 170 189 190 180 170 171 164
236 145 163 154 166 96 87 134 121 109 116 111 96 86 83 82 75 58 44 58 71 84 99 99 107 95 89 82 80 80 77 77 84 74 65 65 36 32 39 39 37 39 35 43 65 108 154 272 17 37 48 43 66 349 331 320 344 321 269 250 222 236 250 281 328 313 297 251 258 220 249 241 240 228 210 210 198 195 202 186 200 203 210 189 194 184 188 188 189 185 184 191 176 184 188 163 180
184 136 150 145 109 126 130 132 118 112 111 115 100 84 69 48 237 86 45 50 77 79 73 60 61 77 69 66 60 58 67 71 70 83 83 81 65 35 33 39 37 37 37 42 46 51 71 87 61 44 35 31 32 108 255 302 255 262 263 259 255 249 251 271 265 255 256 269 299 314 316 293 284 246 230 234 223 201 207 199 207 202 203 210 212 196 186 188 197 192 202 195 178 191 184 167 199
195 121 135 121 110 86 113 118 126 131 104 114 101 90 74 66 59 58 54 69 104 104 101 107 120 89 84 81 76 69 63 57 57 60 61 60 54 48 41 34 41 44 43 40 44 52 60 59 57 40 34 22 3 348 318 257 215 227 232 253 272 270 250 243 243 250 251 250 250 266 275 275 296 333 307 276 259 238 220 222 215 221 210 203 210 221 203 199 193 199 203 196 207 198 189 185 191
139 155 151 140 139 103 66 100 98 175 127 117 116 108 64 45 55 54 53 79 104 105 99 99 101 98 91 87 86 76 71 74 74 70 66 65 60 54 51 39 35 45 49 42 40 43 46 48 51 46 35 34 18 359 353 347 333 300 250 252 261 259 242 242 248 252 259 257 249 243 294 310 277 311 322 304 283 250 236 226 225 217 221 211 204 212 223 212 212 198 197 201 201 201 198 191 190
149 200 153 160 155 117 58 89 82 163 112 281 243 192 65 60 62 56 43 96 108 96 96 99 101 100 98 91 88 83 80 77 72 68 70 70 67 62 58 47 40 40 42 40 39 44 43 47 45 43 31 35 26 19 359 334 326 291 274 274 265 268 266 263 261 239 261 247 317 352 312 260 253 226 214 203 274 279 260 229 224 217 222 208 203 197 208 214 217 205 200 203 202 207 201 192 197
172 131 206 170 176 131 74 33 59 189 126 259 242 201 95 81 74 70 62 96 107 102 100 99 99 98 96 94 92 88 82 78 77 74 71 66 65 58 53 45 41 37 34 32 33 34 42 46 45 51 35 39 29 28 13 359 339 303 279 260 235 247 256 276 278 346 303 255 246 195 218 223 220 214 208 207 207 184 240 242 222 218 205 206 211 198 210 207 215 212 209 205 201 212 206 194 206
133 173 180 169 205 125 107 80 28 330 152 256 238 119 105 95 97 81 69 112 114 101 100 98 97 97 97 96 94 92 90 86 78 73 64 59 52 53 45 42 37 33 30 24 22 22 29 33 34 39 36 36 40 27 14 360 351 344 317 283 274 259 262 249 248 231 223 226 227 233 236 235 233 232 226 219 214 198 223 226 213 217 209 207 212 206 207 213 212 216 212 217 209 207 212 201 206
164 248 151 179 254 134 155 92 70 2 162 177 275 123 133 106 106 92 60 116 108 102 101 101 101 100 98 93 93 91 87 76 70 61 57 56 52 47 45 42 37 33 28 24 17 13 18 18 23 23 23 23 25 30 22 359 351 343 333 312 298 296 276 265 261 248 233 226 220 238 243 233 233 230 225 218 205 208 220 245 237 220 212 215 217 220 214 218 212 211 218 220 223 222 219 212 202
231 320 178 223 220 168 202 108 60 126 243 169 179 142 106 114 118 110 99 127 118 105 101 96 94 95 95 94 89 83 75 69 60 54 52 50 51 48 45 41 36 31 29 24 19 14 10 11 11 15 10 10 7 9 10 356 343 325 321 317 311 289 287 285 280 262 252 237 235 236 241 248 244 233 231 221 217 212 215 220 203 248 219 211 213 214 222 218 218 213 218 218 226 231 230 230 211
183 198 198 191 222 206 194 180 90 214 204 142 108 110 121 117 118 113 102 115 109 104 102 100 100 98 96 93 88 81 74 68 62 56 51 50 48 45 43 38 34 29 26 22 19 16 11 8 6 9 7 3 357 352 351 345 330 301 310 301 294 276 261 259 279 279 266 242 240 251 248 248 245 241 225 224 227 215 216 216 180 233 225 214 215 218 221 221 223 223 224 219 223 235 243 230 236
186 193 198 187 190 173 120 83 98 196 161 150 152 137 130 128 122 119 112 114 109 105 105 104 101 101 98 92 86 81 80 74 69 64 57 51 49 45 41 39 37 33 26 21 19 16 12 8 5 4 5 358 351 351 351 352 349 338 333 327 315 323 311 296 278 273 272 266 248 243 246 245 249 247 245 235 233 225 222 222 203 206 231 220 217 219 221 221 220 222 223 233 226 228 237 243 234
177 193 191 186 159 103 103 99 83 82 117 122 138 134 130 125 122 122 125 124 115 114 113 112 114 111 106 101 94 88 80 80 79 71 64 59 55 48 43 36 33 34 29 21 17 14 10 7 3 4 359 355 357 355 355 350 351 339 335 324 318 312 312 308 286 277 269 265 270 265 252 247 248 248 246 244 237 230 229 227 223 213 220 223 219 220 222 229 224 226 228 224 234 234 233 231 236
180 174 171 160 165 133 102 110 103 170 235 130 136 132 125 120 126 127 130 133 123 124 122 117 113 106 102 97 93 90 93 92 84 76 65 54 50 50 43 37 30 27 26 21 16 10 6 4 5 358 358 353 356 355 346 343 344 340 326 315 317 309 308 305 305 303 299 301 292 273 266 257 246 243 242 247 241 240 232 225 224 220 217 220 222 222 221 226 229 226 227 230 225 232 236 232 221
166 171 160 148 126 112 102 105 128 165 180 138 147 135 124 126 126 131 137 123 103 79 94 108 124 124 116 104 100 99 96 89 79 72 63 58 52 45 44 39 35 31 25 23 15 10 8 6 2 355 352 347 350 351 345 342 333 326 321 310 305 306 295 295 297 298 294 285 280 278 269 260 250 251 244 231 238 244 239 232 227 220 214 212 211 218 219 224 225 224 225 228 226 223 232 230 222
148 152 170 155 143 160 148 118 154 153 221 154 157 140 129 128 131 125 121 126 113 109 112 107 93 97 91 89 89 103 101 93 80 66 60 54 47 41 37 32 29 26 21 19 13 9 6 3 358 353 348 347 342 348 338 332 324 314 304 301 297 290 295 295 286 282 279 276 274 275 275 269 262 256 252 242 229 235 240 235 231 226 213 210 208 209 213 221 223 223 223 223 226 234 223 223 214
98 149 134 141 169 176 153 134 124 120 109 157 159 157 151 163 163 160 148 133 139 136 142 135 121 105 102 103 94 80 83 78 71 67 57 48 41 38 33 30 24 24 20 15 9 7 358 357 354 349 345 344 341 340 336 329 322 317 313 304 290 277 267 266 266 270 266 266 269 266 266 267 266 260 252 247 245 242 241 238 230 230 240 216 213 215 213 216 215 218 221 221 220 226 232 229 218
137 60 52 144 159 150 134 145 156 158 143 190 186 192 200 175 185 179 156 168 172 162 171 160 139 137 138 120 103 98 85 68 67 61 56 48 42 38 32 27 27 24 21 15 7 1 355 351 348 345 340 339 340 337 336 328 322 318 316 314 308 297 288 275 274 284 292 295 293 294 279 271 265 254 248 247 244 242 244 240 239 235 229 229 221 220 219 216 217 218 217 222 225 224 234 234 230
185 125 205 153 162 150 155 168 194 188 198 174 232 252 195 167 194 187 172 185 177 170 192 173 167 159 155 141 131 119 113 108 89 76 57 47 39 32 28 26 24 24 18 11 5 356 351 347 345 342 338 335 335 333 332 326 320 315 314 309 301 295 289 283 283 284 283 286 292 293 293 286 276 265 253 245 238 237 243 244 241 239 237 234 226 222 222 219 219 219 215 214 222 225 224 235 236
132 117 179 157 168 172 173 182 223 86 51 140 203 247 272 198 201 189 183 194 188 187 191 190 181 173 161 150 140 131 126 114 108 88 69 56 45 31 25 21 23 22 14 8 1 353 348 345 342 343 338 335 331 332 327 325 315 311 308 304 297 291 287 290 291 287 282 279 280 282 283 279 278 274 264 251 240 232 230 239 240 237 236 233 235 228 230 230 225 220 215 219 219 224 224 230 232
98 149 173 167 179 185 193 207 217 137 196 181 203 210 254 266 168 168 180 200 205 206 200 194 187 178 165 161 156 147 125 121 110 98 77 58 41 36 24 21 23 17 11 4 357 352 347 341 338 337 335 332 334 331 326 323 318 311 304 299 295 292 292 287 282 280 277 275 277 282 281 283 280 273 267 260 249 241 231 230 233 232 230 235 245 280 276 268 254 239 214 211 220 229 233 229 231
117 143 185 140 153 195 200 221 209 174 238 231 199 194 249 254 144 182 186 223 219 213 209 202 190 185 171 168 160 158 151 148 128 104 96 77 50 41 26 23 18 14 1 351 353 349 348 345 340 335 334 331 335 330 327 323 320 313 303 299 296 293 291 289 285 283 280 275 274 277 282 276 275 271 261 252 247 243 239 234 233 229 227 231 217 234 254 241 233 241 233 219 220 229 231 227 224
131 152 144 149 162 160 199 275 233 217 226 245 196 189 248 261 225 209 197 217 225 219 204 201 191 183 172 167 171 171 165 156 142 127 102 87 73 36 24 20 12 8 356 348 347 346 343 345 338 332 331 329 332 333 328 328 326 318 308 304 297 293 290 289 288 282 277 272 271 277 278 278 274 275 276 267 257 248 242 240 240 236 219 221 203 239 244 264 273 260 265 278 266 244 246 236 229
156 169 164 151 154 168 202 190 234 242 239 186 166 223 217 257 237 218 209 217 232 223 206 197 190 182 175 170 180 170 155 153 133 136 127 80 37 31 16 11 6 1 355 349 343 343 341 341 337 332 330 333 333 335 331 332 329 321 312 304 298 297 297 294 290 288 286 285 278 276 275 275 272 271 271 270 263 258 253 247 242 245 240 222 207 207 215 226 231 226 230 205 202 257 257 254 250
206 183 185 203 161 204 201 197 216 224 273 100 217 192 232 239 265 291 209 204 206 211 209 196 192 187 174 174 174 166 151 158 156 129 135 127 358 359 0 2 359 358 356 348 344 341 340 338 337 334 334 336 336 335 336 336 335 332 327 323 319 316 311 304 293 286 282 281 278 276 276 277 279 273 271 271 268 263 257 249 246 243 236 233 224 208 208 219 233 236 229 220 209 214 217 238 248
208 205 197 229 208 206 235 226 234 257 180 147 161 179 257 281 246 228 274 216 199 191 207 201 190 184 174 172 171 163 161 167 157 147 181 206 274 337 353 347 356 357 354 351 345 339 339 336 336 336 335 338 337 336 339 341 343 338 335 335 330 328 326 320 314 302 294 283 280 277 275 279 283 282 283 280 280 274 263 255 250 246 241 240 230 223 220 223 227 228 228 226 223 223 213 217 229
211 263 238 242 263 236 231 237 235 234 268 129 148 219 254 257 83 35 101 306 190 179 186 174 174 173 172 170 171 168 174 170 176 198 207 204 210 254 303 338 345 356 352 351 345 340 337 337 336 337 337 341 338 335 335 343 346 333 334 340 337 333 333 334 336 340 326 318 304 298 292 288 289 290 286 287 278 270 274 274 265 253 251 248 244 236 232 230 226 225 227 230 232 229 217 198 211
170 248 266 251 247 270 268 13 321 332 306 210 173 259 248 321 129 127 178 192 192 165 162 163 164 163 162 171 179 181 184 187 192 199 202 204 214 227 258 315 334 352 347 348 339 339 337 337 336 335 337 339 338 333 333 341 342 335 328 340 341 341 335 338 341 347 342 336 328 317 309 301 301 301 300 292 282 270 267 267 266 266 263 254 247 242 238 236 237 235 232 229 227 217 210 207 209
149 212 222 289 24 284 263 179 63 105 251 267 233 237 248 186 203 180 165 182 182 175 175 181 177 173 172 183 185 192 194 192 194 196 206 200 210 212 244 290 313 339 346 344 337 338 336 337 336 335 336 340 337 334 329 333 334 339 340 337 339 336 336 343 340 340 340 341 336 331 321 313 306 299 299 301 295 291 279 275 273 265 258 257 257 253 251 249 246 248 248 242 235 219 218 220 219
230 231 132 93 39 328 276 277 160 233 262 264 203 261 270 247 270 166 168 195 186 185 188 185 179 179 184 191 193 195 197 196 192 194 198 203 212 216 237 240 312 340 339 336 345 333 343 340 336 331 336 335 342 337 331 328 331 340 341 342 340 334 330 335 340 340 336 338 344 346 343 335 334 321 311 306 302 293 284 274 273 272 265 254 251 249 253 257 260 260 253 259 252 253 236 232 215
277 338 85 250 202 213 198 259 253 269 262 272 251 250 268 267 251 174 182 203 190 195 193 190 188 188 194 194 197 199 195 193 194 199 200 200 206 212 205 273 305 338 323 336 343 333 349 341 335 329 333 332 341 339 329 322 331 336 343 341 340 339 335 331 332 336 334 338 339 339 340 341 343 335 324 316 306 292 278 278 272 274 268 260 254 250 240 244 245 256 256 245 243 239 231 228 224
222 220 225 200 277 280 229 235 287 280 280 272 278 245 284 248 294 43 190 202 205 198 197 200 196 193 197 200 200 200 199 195 199 204 202 196 201 208 232 284 296 326 337 343 347 340 343 342 334 331 333 335 345 343 335 328 331 334 340 342 340 339 341 336 335 336 334 338 338 337 335 338 336 338 344 336 311 297 297 286 278 271 271 269 265 258 249 245 235 245 248 240 233 230 231 225 225
177 213 208 175 233 26 295 277 254 272 287 281 289 281 285 31 69 322 307 242 211 204 203 202 200 197 200 203 202 204 198 193 203 204 191 188 187 194 213 236 297 328 329 347 351 339 344 343 338 339 337 334 345 345 335 330 328 335 334 338 339 335 339 343 342 341 341 342 343 340 340 334 333 342 347 342 351 326 320 301 289 282 278 277 271 266 252 250 241 240 234 253 245 231 231 234 228
293 255 231 231 203 208 222 241 178 252 250 274 283 285 308 115 115 333 292 337 270 214 208 204 202 201 201 199 202 200 202 193 200 201 191 189 187 195 232 241 290 323 342 359 348 339 348 347 343 343 342 346 350 346 353 336 333 328 330 332 334 337 337 345 343 344 352 348 347 345 343 337 339 342 347 345 357 334 318 299 291 296 287 275 275 282 302 283 266 251 251 245 293 297 284 276 283